User: anonymous   Login
Location: Bush Observatory
(40.2653°N, 94.3194°W)
Time: 02:38:54
(UTC-05:00)
Language:

Cosmos 1933 Rocket - Orbit

View from above orbital plane
View from above orbital plane
View from above satellite
View from above satellite

Ground track
Ground track

The orbit data is extracted from the following two-line orbital elements,

1 18959U 88020B   16149.44486884  .00000106  00000-0  10006-4 0  9995
2 18959  82.5382 270.3034 0016069 330.7309  29.3003 14.83277732523548
Epoch (UTC): 28 May 2016 10:40:36
Eccentricity: 0.0016069
inclination: 82.5382°
perigee height: 608 km
apogee height: 630 km
right ascension of ascending node: 270.3034°
argument of perigee: 330.7309°
revolutions per day: 14.83277732
mean anomaly at epoch: 29.3003°
orbit number at epoch: 52354

The dashed part of the orbit path shows where the satellite is in the earth's shadow,  

DLR